STARLINK-31363, 59782

Orbit data source: Space-Track

STARLINK-31363, 59782 is a payload satellite owned by SpaceX/Seattle (US) in LEO that was launched on Sat, 18 May 2024 UTC via an FALCON 9 launch vehicle from the Air Force Eastern Test Range (AFETR). Payloads include a variety of satellites, spacecraft, and rockets equipped with specific instruments for various scientific and technological missions. These include communications satellites like Starlink; space stations such as the ISS; scientific satellites like the Hubble; Earth observation satellites from companies like Planet Labs, Umbra, and HawkEye 360; GPS; miniature CubeSats for education and research; and military/defense satellites.

Loading next visibility...
STARLINK-31363 details
Identifier
59782, 2024-093A
Orbit
LEO
Last TLE update6 hours ago
Origin
Flag of USSpaceX/Seattle (US)
ManufacturerSpaceX/Seattle
MissionPartially operational spacecraft
Bus & MotorSTARLINK V2M, Unknown motor
Mass730 kg wet, ~700 kg dry
Launch date (UTC)
2024-05-18 (9 months ago)
Launch vehicle
FALCON 9
Launch site
Air Force Eastern Test Range (AFETR)
Object type
Payload
Rocket body
Debris
Shape & HBRUnknown
Radar Cross SectionLarge (>1 m²)

Expand to show TLE details & history

TLE from 6 hours ago
0 STARLINK-31363
1 59782U 24093A   25044.58336806  .00047217  00000-0  10512-2 0  9995
2 59782  42.9992 246.6024 0003279 280.9727  71.1266 15.42879453 43174
Epoch: 2025-02-13T14:00Z
Definitive object data (Epoch: 2025-02-13T14:00:03Z)
Latitude-5.44495°
Longitude-113.10183°
Altitude437.535 km
Speed7.651 km/s
True Right ascension16h 03m 04s
True Declination-5° 24' 40"
Sunlit
Object was in daylight at TLE epoch
Visualization TLE readout
Latitude-21.32839°
Longitude-133.34729°
Altitude440.842 km
Speed7.649 km/s
Apparent Right ascension12h 59m 24s
Apparent Declination-33° 45' 29"
Sunlit
Object is in daylight
Visualization observer readout
Local Sidereal Time22:42:39
Azimuth271.848° WNW
Elevation-62.133°
Doppler factor1
Orbital elements
Apogee altitude441.81 km
Perigee altitude437.339 km
Semi-major axis6,817.711 km
Eccentricity0.0003279
Inclination42.9992°
RAAN246.6024°
Arg. of periapsis280.9727°
True anomaly71.16216°
Mean anomaly71.1266°
Eccentric anomaly71.14438°
Mean motion3.85554 °/min
BSTAR0.0010512
Orbital period93.37 mins
Loading maneuver chart data...
Loading historical data...
Loading historical data...
Loading historical data...
Loading historical data...
Loading historical data...
Loading historical data...
Loading historical data...

STARLINK-31363 Visibility forecast

Observer location: undefined°, undefined

Span
Click to sort rows by Start time (UTC) header in descending order
Start Az.
Max El. time (UTC)
Max El. Az.
Max El.
End time (UTC)
End Az.
6 mins2025-02-13 20:37:41.470Z289.472° WNW2025-02-13 20:40:41.470Z335.015° NNW38.662°2025-02-13 20:43:41.470Z87.554° E
4 mins2025-02-13 22:17:41.470Z260.247° W2025-02-13 22:18:41.470Z225.096° WSW34.324°2025-02-13 22:21:41.470Z137.228° SSE
5 mins2025-02-14 16:40:41.470Z213.212° SW2025-02-14 16:42:41.470Z142.375° SSE34.18°2025-02-14 16:45:41.470Z80.832° E
5 mins2025-02-14 18:18:41.470Z278.227° WNW2025-02-14 18:20:41.470Z17.041° NNE39.708°2025-02-14 18:23:41.470Z70.097° E
5 mins2025-02-14 19:56:41.470Z298.167° NW2025-02-14 19:58:41.470Z17.31° NNE38.656°2025-02-14 20:01:41.470Z84.936° E
|